Weather in Krasnye Stanki

Russia / Novgorod Oblast     58˚24′10″N   31˚49′42″E
temp.,
°C
wind,
m/s
gust,
m/s
humid.,
%
clouds,
%
prec.,
mm/h
press.,
hPa
HPBL,
m
18 january, mon
mon1800:00−12˚sw259696 0.2 1018166
03:00−11˚sw259696 0.5 1017158
06:00−11˚sw2596100 0.3 1016143
09:00−11˚sw239695 0.4 1017132
12:00−9˚ssw249394 0.3 1018202
15:00−9˚sw139495 0.3 1017174
18:00−11˚ssw129793 0.1 101732
21:00−11˚s129791 0.1 101722
19 january, tue
tue1900:00−11˚sw119785 0.1 101721
03:00−12˚ssw129782 0.1 101821
06:00−13˚ssw129894 0.0 101620
09:00−12˚ssw129796 0.1 101720
12:00−11˚ssw239498 0.1 1017171
15:00−10˚ssw239497 0.1 1016181
18:00−13˚ssw229643 0.0 101623
21:00−13˚ssw229745 0.0 101731
20 january, wed
wed2000:00−13˚ssw229766 0.0 101741
03:00−14˚ssw229763 0.0 101752
06:00−14˚s239748 0.0 101753
09:00−15˚s259747 0.0 1017108
12:00−12˚s369117 0.0 1017245
15:00−11˚sse378936 0.0 1016322
18:00−12˚sse310920 0.0 1015285
21:00−12˚sse4118750 0.0 1013384
21 january, thu
thu2100:00−10˚sse51281100 0.0 1010483
03:00−8˚s61493100 0.8 1007688
06:00−7˚s61493100 2.5 1003709
09:00−6˚ssw61394100 4.1 1001589
12:00−3˚ssw61393100 0.9 1000499
15:00+1˚ssw61496100 2.7 998527
18:00+2˚sw51397100 2.3 998518
21:00+2˚sw61395100 3.2 999479
22 january, fri
fri2200:00+1˚sw51195100 0.6 1001449
03:00sw4998100 0.9 1002297
06:00sw3696100 0.4 1003263
09:00sw3697100 0.5 1005256
12:00−1˚s2596100 0.0 1006210
15:00s2595100 0.0 1006358
18:00se3697100 0.0 1006216
21:00+1˚se3896100 0.1 1006295